Location: Montclair
(37.8322°N, 122.2092°W)
Time: 06:21:45
(UTC+00:00)

Cosmos 1606 Rocket - Pass Details

Date: 09 December 2024
Orbit: 599 x 625 km, 82.5° (Epoch: 18 January)

Event Time Altitude Azimuth Distance (km) Brightness Sun altitude
Rises 01:55:28 0° 224° (SW) 2,835 8.2 -12.7°
Reaches altitude 10° 01:58:18 10° 244° (WSW) 1,936 7.6 -13.2°
Maximum altitude 02:01:12 18° 287° (WNW) 1,509 6.3 -13.8°
Drops below altitude 10° 02:04:06 10° 329° (NNW) 1,945 6.3 -14.3°
Sets 02:06:58 0° 349° (N) 2,855 6.9 -14.9°
